Location: Guayaquil
(2.1667°S, 79.9000°W)
Time: 09:21:43
(UTC-05:00)

Tiangong 2 - Visible Passes

Search period start: 12 December 2018 00:00
Search period end: 22 December 2018 00:00
Orbit: 382 x 391 km, 42.8° (Epoch: 12 December)

Date Brightness Start Highest point End Pass type
(mag) Time Alt. Az. Time Alt. Az. Time Alt. Az.
13 Dec 3.8 18:59:36 10° WNW 19:01:17 14° NW 19:02:56 10° NNW visible
15 Dec 1.3 05:30:50 10° NW 05:33:57 69° NE 05:37:07 10° SE visible
16 Dec 3.0 04:35:14 23° NE 04:35:14 23° NE 04:37:52 10° ESE visible
17 Dec 2.0 05:11:54 25° W 05:13:06 34° SW 05:16:04 10° SSE visible
18 Dec 3.6 04:16:12 23° SE 04:16:12 23° SE 04:17:32 10° SE visible
19 Dec 3.6 04:52:44 13° SW 04:52:44 13° SW 04:53:53 10° SSW visible
